Weather History for LEPA - October, 2014

Change the Weather History Date:

Thursday, October 23, 2014

  Actual Average Record
Temperature  
Mean Temperature 66 °F -  
Max Temperature 78 °F 66 °F 80 °F (2004)
Min Temperature 53 °F 48 °F 50 °F (2003)
Growing Degree Days 16 (Base 50)    
Moisture  
Dew Point 49 °F    
Average Humidity 59    
Maximum Humidity 94    
Minimum Humidity 15    
Precipitation  
Precipitation 0.00 in 0.07 in - ()
Sea Level Pressure  
Sea Level Pressure 30.12 in    
Wind  
Wind Speed 3 mph ()    
Max Wind Speed 14 mph    
Max Gust Speed -    
Visibility 7.5 miles    
Events      
Averages and records for this station are not official NWS values.
T = Trace of Precipitation, MM = Missing Value Source: Averaged Metar Reports

Daily Weather History Graph

Daily Weather History Graph

Search for Another Location

Airport or City:

Trip Planner

Search our weather history database for the weather conditions in past years. The results will help you decide how hot, cold, wet, or windy it might be!

Date:

Astronomy

Oct. 23, 2014 Rise Set
Actual Time 8:07 AM CEST 6:58 PM CEST
Civil Twilight 7:39 AM CEST 7:26 PM CEST
Nautical Twilight 7:08 AM CEST 7:57 PM CEST
Astronomical Twilight 6:37 AM CEST 8:28 PM CEST
Moon 7:31 AM CEST (10/23) 6:51 PM CEST (10/23)
Length of Visible Light 11h 46m
Length of Day
10h 51m
Waning Crescent, 0% of the Moon is Illuminated
Oct 23
Waning Crescent
Oct 23
New
Oct 31
First Quarter
Nov 6
Full
Nov 14
Last Quarter

Hourly Weather History & Observations

Time (CEST) Temp. Dew Point Humidity Pressure Visibility Wind Dir Wind Speed Gust Speed Precip Events Conditions
12:00 AM 62 °F 53 °F 63% 30.25 in - Calm Calm - -  
12:00 AM 62.6 °F 53.6 °F 72% 30.24 in 6.2 mi NE 2.3 mph - N/A   Scattered Clouds
12:30 AM 60.8 °F 53.6 °F 77% 30.24 in 6.2 mi North 4.6 mph - N/A   Partly Cloudy
1:00 AM 59 °F 53 °F 75% 30.24 in - North 3.5 mph - -  
1:00 AM 59.0 °F 53.6 °F 82% 30.21 in - North 2.3 mph - N/A   Clear
1:30 AM 59.0 °F 53.6 °F 82% 30.21 in - Calm Calm - N/A   Clear
2:00 AM 58 °F 54 °F 80% 30.22 in 9 mi NNW 1.2 mph - -   Scattered Clouds
2:00 AM 59.0 °F 53.6 °F 82% 30.21 in - Calm Calm - N/A   Clear
2:30 AM 57.2 °F 53.6 °F 88% 30.21 in 6.2 mi Calm Calm - N/A   Partly Cloudy
3:00 AM 57 °F 53 °F 81% 30.22 in - NE 1.2 mph - -  
3:00 AM 57.2 °F 53.6 °F 88% 30.21 in 6.2 mi Variable 1.2 mph - N/A   Partly Cloudy
3:30 AM 57.2 °F 51.8 °F 82% 30.21 in 6.2 mi Calm Calm - N/A   Partly Cloudy
4:00 AM 55 °F 52 °F 85% 30.21 in - Calm Calm - -  
4:00 AM 55.4 °F 51.8 °F 88% 30.21 in 6.2 mi Calm Calm - N/A   Partly Cloudy
4:30 AM 55.4 °F 51.8 °F 88% 30.18 in 6.2 mi Calm Calm - N/A   Partly Cloudy
5:00 AM 54 °F 51 °F 86% 30.19 in 9 mi Calm Calm - -   Scattered Clouds
5:00 AM 55.4 °F 51.8 °F 88% 30.18 in 6.2 mi East 3.5 mph - N/A   Partly Cloudy
5:30 AM 55.4 °F 51.8 °F 88% 30.15 in 6.2 mi Calm Calm - N/A   Partly Cloudy
6:00 AM 53 °F 50 °F 86% 30.18 in - ENE 2.3 mph - -  
6:00 AM 53.6 °F 50.0 °F 88% 30.15 in 6.2 mi ENE 1.2 mph - N/A   Partly Cloudy
6:30 AM 55.4 °F 51.8 °F 88% 30.15 in 6.2 mi Calm Calm - N/A   Partly Cloudy
7:00 AM 55 °F 51 °F 83% 30.18 in - ENE 1.2 mph - -  
7:00 AM 55.4 °F 51.8 °F 88% 30.15 in 6.2 mi Calm Calm - N/A   Partly Cloudy
7:30 AM 53.6 °F 51.8 °F 94% 30.15 in 6.2 mi Calm Calm - N/A   Partly Cloudy
8:00 AM 54 °F 52 °F 89% 30.17 in 9 mi NNW 3.5 mph - -   Scattered Clouds
8:00 AM 53.6 °F 51.8 °F 94% 30.15 in 6.2 mi Variable 1.2 mph - N/A   Partly Cloudy
8:30 AM 55.4 °F 53.6 °F 94% 30.15 in 6.2 mi Calm Calm - N/A   Partly Cloudy
9:00 AM 56 °F 53 °F 85% 30.17 in - Calm Calm - -  
9:00 AM 57.2 °F 53.6 °F 88% 30.15 in 6.2 mi Calm Calm - N/A   Partly Cloudy
9:30 AM 59.0 °F 53.6 °F 82% 30.15 in 6.2 mi Calm Calm - N/A   Partly Cloudy
10:00 AM 62 °F 54 °F 68% 30.18 in - Calm Calm - -  
10:00 AM 62.6 °F 55.4 °F 77% 30.15 in 6.2 mi Calm Calm - N/A   Partly Cloudy
10:30 AM 66.2 °F 57.2 °F 73% 30.15 in 6.2 mi Variable 1.2 mph - N/A   Partly Cloudy
11:00 AM 72 °F 58 °F 53% 30.16 in 11 mi SSW 4.6 mph - -   Scattered Clouds
11:00 AM 71.6 °F 59.0 °F 64% 30.15 in 6.2 mi WSW 4.6 mph - N/A   Partly Cloudy
11:30 AM 73.4 °F 55.4 °F 53% 30.15 in 6.2 mi WSW 4.6 mph - N/A   Partly Cloudy
12:00 PM 76 °F 51 °F 31% 30.14 in - NW 10.4 mph - -  
12:00 PM 73.4 °F 55.4 °F 53% 30.12 in 6.2 mi NW 8.1 mph - N/A   Partly Cloudy
12:30 PM 75.2 °F 51.8 °F 44% 30.12 in 6.2 mi NW 10.4 mph - N/A   Partly Cloudy
1:00 PM 77 °F 50 °F 28% 30.12 in - NW 11.5 mph - -  
1:00 PM 75.2 °F 50.0 °F 41% 30.12 in 6.2 mi NW 12.7 mph - N/A   Partly Cloudy
1:30 PM 77.0 °F 50.0 °F 39% 30.09 in 6.2 mi NNW 11.5 mph - N/A   Partly Cloudy
2:00 PM 78 °F 46 °F 21% 30.09 in 16 mi NW 12.7 mph - -   Clear
2:00 PM 77.0 °F 46.4 °F 34% 30.09 in - NW 12.7 mph - N/A   Clear
2:30 PM 77.0 °F 48.2 °F 36% 30.06 in - NW 10.4 mph - N/A   Clear
3:00 PM 77 °F 42 °F 18% 30.06 in - NW 13.8 mph - -  
3:00 PM 77.0 °F 44.6 °F 32% 30.06 in - NW 13.8 mph - N/A   Clear
3:30 PM 77.0 °F 44.6 °F 32% 30.06 in - WNW 6.9 mph - N/A   Clear
4:00 PM 78 °F 39 °F 15% 30.06 in - WNW 10.4 mph - -  
4:00 PM 77.0 °F 41.0 °F 28% 30.04 in - WNW 9.2 mph - N/A   Clear
4:30 PM 77.0 °F 39.2 °F 26% 30.04 in - WNW 9.2 mph - N/A   Clear
5:00 PM 77 °F 40 °F 16% 30.05 in 25 mi WNW 8.1 mph - -  
5:00 PM 77.0 °F 41.0 °F 28% 30.04 in - WNW 9.2 mph - N/A   Clear
5:30 PM 75.2 °F 41.0 °F 29% 30.04 in - NW 10.4 mph - N/A   Clear
6:00 PM 74 °F 41 °F 19% 30.04 in - NW 8.1 mph - -  
6:00 PM 75.2 °F 42.8 °F 31% 30.04 in - NW 8.1 mph - N/A   Clear
6:30 PM 73.4 °F 42.8 °F 33% 30.04 in - WNW 5.8 mph - N/A   Clear
7:00 PM 71 °F 43 °F 25% 30.03 in - West 2.3 mph - -  
7:00 PM 69.8 °F 44.6 °F 40% 30.04 in - Variable 2.3 mph - N/A   Clear
7:30 PM 68.0 °F 42.8 °F 40% 30.04 in - West 5.8 mph - N/A   Clear
8:00 PM 66 °F 41 °F 29% 30.04 in 19 mi West 2.3 mph - -  
8:00 PM 66.2 °F 42.8 °F 43% 30.04 in - Variable 1.2 mph - N/A   Clear
8:30 PM 62.6 °F 44.6 °F 52% 30.04 in - Calm Calm - N/A   Clear
9:00 PM 64 °F 41 °F 31% 30.04 in - Calm Calm - -  
9:00 PM 66.2 °F 44.6 °F 46% 30.04 in - Variable 2.3 mph - N/A   Clear
9:30 PM 62.6 °F 44.6 °F 52% 30.04 in - Calm Calm - N/A   Clear
10:00 PM 60 °F 44 °F 44% 30.05 in - Calm Calm - -  
10:00 PM 60.8 °F 44.6 °F 55% 30.04 in - Variable 2.3 mph - N/A   Clear
10:30 PM 59.0 °F 44.6 °F 59% 30.04 in - Calm Calm - N/A   Clear
11:00 PM 61 °F 50 °F 57% 30.04 in 12 mi NW 2.3 mph - -  
11:00 PM 59.0 °F 46.4 °F 63% 30.04 in - Variable 2.3 mph - N/A   Clear
11:30 PM 59.0 °F 46.4 °F 63% 30.04 in - Calm Calm - N/A   Clear